Year,Month,Day,Hour,Minute,Value (Times are PST for temperature in C)
2007,09,23,00,00,9.30
2007,09,23,00,01,9.40
2007,09,23,00,02,9.40
2007,09,23,00,03,9.50
2007,09,23,00,04,9.50
2007,09,23,00,05,9.60
2007,09,23,00,06,9.60
2007,09,23,00,07,9.60
2007,09,23,00,08,9.70
2007,09,23,00,09,9.70
2007,09,23,00,10,9.70
2007,09,23,00,11,9.70
2007,09,23,00,12,9.70
2007,09,23,00,13,9.80
2007,09,23,00,14,9.80
2007,09,23,00,15,9.80
2007,09,23,00,16,9.80
2007,09,23,00,17,9.80
2007,09,23,00,18,9.80
2007,09,23,00,19,9.80
2007,09,23,00,20,9.70
2007,09,23,00,21,9.60
2007,09,23,00,22,9.60
2007,09,23,00,23,9.60
2007,09,23,00,24,9.60
2007,09,23,00,25,9.60
2007,09,23,00,26,9.60
2007,09,23,00,27,9.60
2007,09,23,00,28,9.50
2007,09,23,00,29,9.50
2007,09,23,00,30,9.40
2007,09,23,00,31,9.40
2007,09,23,00,32,9.40
2007,09,23,00,33,9.30
2007,09,23,00,34,9.40
2007,09,23,00,35,9.40
2007,09,23,00,36,9.40
2007,09,23,00,37,9.40
2007,09,23,00,38,9.40
2007,09,23,00,39,9.40
2007,09,23,00,40,9.50
2007,09,23,00,41,9.50
2007,09,23,00,42,9.60
2007,09,23,00,43,9.60
2007,09,23,00,44,9.60
2007,09,23,00,45,9.60
2007,09,23,00,46,9.50
2007,09,23,00,47,9.50
2007,09,23,00,48,9.50
2007,09,23,00,49,9.50
2007,09,23,00,50,9.50
2007,09,23,00,51,9.50
2007,09,23,00,52,9.40
2007,09,23,00,53,9.40
2007,09,23,00,54,9.40
2007,09,23,00,55,9.40
2007,09,23,00,56,9.40
2007,09,23,00,57,9.40
2007,09,23,00,58,9.30
2007,09,23,00,59,9.30
2007,09,23,01,00,9.20
2007,09,23,01,01,9.00
2007,09,23,01,02,8.90
2007,09,23,01,03,8.70
2007,09,23,01,04,8.60
2007,09,23,01,05,8.50
2007,09,23,01,06,8.50
2007,09,23,01,07,8.40
2007,09,23,01,08,8.50
2007,09,23,01,09,8.50
2007,09,23,01,10,8.60
2007,09,23,01,11,8.60
2007,09,23,01,12,8.70
2007,09,23,01,13,8.80
2007,09,23,01,14,8.80
2007,09,23,01,15,8.80
2007,09,23,01,16,8.80
2007,09,23,01,17,8.80
2007,09,23,01,18,8.90
2007,09,23,01,19,8.90
2007,09,23,01,20,8.90
2007,09,23,01,21,8.90
2007,09,23,01,22,8.90
2007,09,23,01,23,8.90
2007,09,23,01,24,8.90
2007,09,23,01,25,8.90
2007,09,23,01,26,9.00
2007,09,23,01,27,9.10
2007,09,23,01,28,9.20
2007,09,23,01,29,9.20
2007,09,23,01,30,9.30
2007,09,23,01,31,9.40
2007,09,23,01,32,9.40
2007,09,23,01,33,9.40
2007,09,23,01,34,9.30
2007,09,23,01,35,9.20
2007,09,23,01,36,9.20
2007,09,23,01,37,9.20
2007,09,23,01,38,9.10
2007,09,23,01,39,9.00
2007,09,23,01,40,8.90
2007,09,23,01,41,8.80
2007,09,23,01,42,8.80
2007,09,23,01,43,8.80
2007,09,23,01,44,8.90
2007,09,23,01,45,8.80
2007,09,23,01,46,8.80
2007,09,23,01,47,8.70
2007,09,23,01,48,8.70
2007,09,23,01,49,8.60
2007,09,23,01,50,8.50
2007,09,23,01,51,8.50
2007,09,23,01,52,8.40
2007,09,23,01,53,8.40
2007,09,23,01,54,8.30
2007,09,23,01,55,8.30
2007,09,23,01,56,8.20
2007,09,23,01,57,8.30
2007,09,23,01,58,8.30
2007,09,23,01,59,8.40
2007,09,23,02,00,8.60
2007,09,23,02,01,8.70
2007,09,23,02,02,8.70
2007,09,23,02,03,8.80
2007,09,23,02,04,8.80
2007,09,23,02,05,8.80
2007,09,23,02,06,8.80
2007,09,23,02,07,8.90
2007,09,23,02,08,8.80
2007,09,23,02,09,8.90
2007,09,23,02,10,8.90
2007,09,23,02,11,9.00
2007,09,23,02,12,9.00
2007,09,23,02,13,8.90
2007,09,23,02,14,8.80
2007,09,23,02,15,8.80
2007,09,23,02,16,8.80
2007,09,23,02,17,8.90
2007,09,23,02,18,8.90
2007,09,23,02,19,8.90
2007,09,23,02,20,8.90
2007,09,23,02,21,9.00
2007,09,23,02,22,9.10
2007,09,23,02,23,9.10
2007,09,23,02,24,9.10
2007,09,23,02,25,9.20
2007,09,23,02,26,9.20
2007,09,23,02,27,9.20
2007,09,23,02,28,9.30
2007,09,23,02,29,9.30
2007,09,23,02,30,9.30
2007,09,23,02,31,9.20
2007,09,23,02,32,9.10
2007,09,23,02,33,9.10
2007,09,23,02,34,9.10
2007,09,23,02,35,9.00
2007,09,23,02,36,9.00
2007,09,23,02,37,9.00
2007,09,23,02,38,9.10
2007,09,23,02,39,9.00
2007,09,23,02,40,9.00
2007,09,23,02,41,9.00
2007,09,23,02,42,9.00
2007,09,23,02,43,8.90
2007,09,23,02,44,8.90
2007,09,23,02,45,8.90
2007,09,23,02,46,8.90
2007,09,23,02,47,8.90
2007,09,23,02,48,8.90
2007,09,23,02,49,8.90
2007,09,23,02,50,8.90
2007,09,23,02,51,8.90
2007,09,23,02,52,8.90
2007,09,23,02,53,8.90
2007,09,23,02,54,8.80
2007,09,23,02,55,8.80
2007,09,23,02,56,8.70
2007,09,23,02,57,8.80
2007,09,23,02,58,8.80
2007,09,23,02,59,8.80
2007,09,23,03,00,8.80
2007,09,23,03,01,8.80
2007,09,23,03,02,8.80
2007,09,23,03,03,8.80
2007,09,23,03,04,8.80
2007,09,23,03,05,8.80
2007,09,23,03,06,8.80
2007,09,23,03,07,8.80
2007,09,23,03,08,8.70
2007,09,23,03,09,8.70
2007,09,23,03,10,8.70
2007,09,23,03,11,8.60
2007,09,23,03,12,8.60
2007,09,23,03,13,8.60
2007,09,23,03,14,8.60
2007,09,23,03,15,8.60
2007,09,23,03,16,8.60
2007,09,23,03,17,8.60
2007,09,23,03,18,8.50
2007,09,23,03,19,8.60
2007,09,23,03,20,8.60
2007,09,23,03,21,8.70
2007,09,23,03,22,8.70
2007,09,23,03,23,8.70
2007,09,23,03,24,8.70
2007,09,23,03,25,8.70
2007,09,23,03,26,8.70
2007,09,23,03,27,8.60
2007,09,23,03,28,8.60
2007,09,23,03,29,8.60
2007,09,23,03,30,8.60
2007,09,23,03,31,8.60
2007,09,23,03,32,8.50
2007,09,23,03,33,8.50
2007,09,23,03,34,8.50
2007,09,23,03,35,8.50
2007,09,23,03,36,8.60
2007,09,23,03,37,8.70
2007,09,23,03,38,8.60
2007,09,23,03,39,8.60
2007,09,23,03,40,8.60
2007,09,23,03,41,8.70
2007,09,23,03,42,8.70
2007,09,23,03,43,8.80
2007,09,23,03,44,8.80
2007,09,23,03,45,8.90
2007,09,23,03,46,8.90
2007,09,23,03,47,8.90
2007,09,23,03,48,8.80
2007,09,23,03,49,8.80
2007,09,23,03,50,8.80
2007,09,23,03,51,8.80
2007,09,23,03,52,8.70
2007,09,23,03,53,8.70
2007,09,23,03,54,8.70
2007,09,23,03,55,8.70
2007,09,23,03,56,8.70
2007,09,23,03,57,8.80
2007,09,23,03,58,8.80
2007,09,23,03,59,8.80
2007,09,23,04,00,8.70
2007,09,23,04,01,8.70
2007,09,23,04,02,8.70
2007,09,23,04,03,8.80
2007,09,23,04,04,8.90
2007,09,23,04,05,8.80
2007,09,23,04,06,8.80
2007,09,23,04,07,8.80
2007,09,23,04,08,8.80
2007,09,23,04,09,8.80
2007,09,23,04,10,8.80
2007,09,23,04,11,8.90
2007,09,23,04,12,8.90
2007,09,23,04,13,8.90
2007,09,23,04,14,8.90
2007,09,23,04,15,9.00
2007,09,23,04,16,8.80
2007,09,23,04,17,8.80
2007,09,23,04,18,8.80
2007,09,23,04,19,8.80
2007,09,23,04,20,8.90
2007,09,23,04,21,8.90
2007,09,23,04,22,8.90
2007,09,23,04,23,8.90
2007,09,23,04,24,8.90
2007,09,23,04,25,9.00
2007,09,23,04,26,9.10
2007,09,23,04,27,9.10
2007,09,23,04,28,9.10
2007,09,23,04,29,9.10
2007,09,23,04,30,9.20
2007,09,23,04,31,9.20
2007,09,23,04,32,9.20
2007,09,23,04,33,9.20
2007,09,23,04,34,9.20
2007,09,23,04,35,9.20
2007,09,23,04,36,9.20
2007,09,23,04,37,9.20
2007,09,23,04,38,9.20
2007,09,23,04,39,9.20
2007,09,23,04,40,9.20
2007,09,23,04,41,9.20
2007,09,23,04,42,9.20
2007,09,23,04,43,9.20
2007,09,23,04,44,9.10
2007,09,23,04,45,9.10
2007,09,23,04,46,9.10
2007,09,23,04,47,9.10
2007,09,23,04,48,9.00
2007,09,23,04,49,9.00
2007,09,23,04,50,8.90
2007,09,23,04,51,8.90
2007,09,23,04,52,8.90
2007,09,23,04,53,8.80
2007,09,23,04,54,8.80
2007,09,23,04,55,8.70
2007,09,23,04,56,8.70
2007,09,23,04,57,8.70
2007,09,23,04,58,8.70
2007,09,23,04,59,8.60
2007,09,23,05,00,8.60
2007,09,23,05,01,8.60
2007,09,23,05,02,8.60
2007,09,23,05,03,8.60
2007,09,23,05,04,8.70
2007,09,23,05,05,8.70
2007,09,23,05,06,8.80
2007,09,23,05,07,8.80
2007,09,23,05,08,8.80
2007,09,23,05,09,8.80
2007,09,23,05,10,8.80
2007,09,23,05,11,8.80
2007,09,23,05,12,8.80
2007,09,23,05,13,8.90
2007,09,23,05,14,8.90
2007,09,23,05,15,8.90
2007,09,23,05,16,8.90
2007,09,23,05,17,8.90
2007,09,23,05,18,8.90
2007,09,23,05,19,8.90
2007,09,23,05,20,8.80
2007,09,23,05,21,8.80
2007,09,23,05,22,8.80
2007,09,23,05,23,8.80
2007,09,23,05,24,8.80
2007,09,23,05,25,8.80
2007,09,23,05,26,8.80
2007,09,23,05,27,8.90
2007,09,23,05,28,9.00
2007,09,23,05,29,9.00
2007,09,23,05,30,9.10
2007,09,23,05,31,9.10
2007,09,23,05,32,9.10
2007,09,23,05,33,9.10
2007,09,23,05,34,9.10
2007,09,23,05,35,9.10
2007,09,23,05,36,9.10
2007,09,23,05,37,9.10
2007,09,23,05,38,9.10
2007,09,23,05,39,9.10
2007,09,23,05,40,9.10
2007,09,23,05,41,9.10
2007,09,23,05,42,9.10
2007,09,23,05,43,9.10
2007,09,23,05,44,9.10
2007,09,23,05,45,9.10
2007,09,23,05,46,8.90
2007,09,23,05,47,8.90
2007,09,23,05,48,8.90
2007,09,23,05,49,8.80
2007,09,23,05,50,8.80
2007,09,23,05,51,8.80
2007,09,23,05,52,8.80
2007,09,23,05,53,8.80
2007,09,23,05,54,8.80
2007,09,23,05,55,8.80
2007,09,23,05,56,8.80
2007,09,23,05,57,8.80
2007,09,23,05,58,8.70
2007,09,23,05,59,8.70
2007,09,23,06,00,8.70
2007,09,23,06,01,8.70
2007,09,23,06,02,8.80
2007,09,23,06,03,8.70
2007,09,23,06,04,8.70
2007,09,23,06,05,8.80
2007,09,23,06,06,8.80
2007,09,23,06,07,8.80
2007,09,23,06,08,8.80
2007,09,23,06,09,8.80
2007,09,23,06,10,8.80
2007,09,23,06,11,8.70
2007,09,23,06,12,8.70
2007,09,23,06,13,8.60
2007,09,23,06,14,8.60
2007,09,23,06,15,8.60
2007,09,23,06,16,8.50
2007,09,23,06,17,8.50
2007,09,23,06,18,8.40
2007,09,23,06,19,8.40
2007,09,23,06,20,8.40
2007,09,23,06,21,8.40
2007,09,23,06,22,8.40
2007,09,23,06,23,8.50
2007,09,23,06,24,8.60
2007,09,23,06,25,8.60
2007,09,23,06,26,8.70
2007,09,23,06,27,8.70
2007,09,23,06,28,8.80
2007,09,23,06,29,8.80
2007,09,23,06,30,8.80
2007,09,23,06,31,8.80
2007,09,23,06,32,8.80
2007,09,23,06,33,8.80
2007,09,23,06,34,8.80
2007,09,23,06,35,8.80
2007,09,23,06,36,8.80
2007,09,23,06,37,8.80
2007,09,23,06,38,8.90
2007,09,23,06,39,8.90
2007,09,23,06,40,8.90
2007,09,23,06,41,8.90
2007,09,23,06,42,8.90
2007,09,23,06,43,8.90
2007,09,23,06,44,8.80
2007,09,23,06,45,8.80
2007,09,23,06,46,8.80
2007,09,23,06,47,8.80
2007,09,23,06,48,8.70
2007,09,23,06,49,8.70
2007,09,23,06,50,8.70
2007,09,23,06,51,8.60
2007,09,23,06,52,8.60
2007,09,23,06,53,8.60
2007,09,23,06,54,8.60
2007,09,23,06,55,8.60
2007,09,23,06,56,8.50
2007,09,23,06,57,8.40
2007,09,23,06,58,8.40
2007,09,23,06,59,8.30
2007,09,23,07,00,8.30
2007,09,23,07,01,8.40
2007,09,23,07,02,8.40
2007,09,23,07,03,8.40
2007,09,23,07,04,8.50
2007,09,23,07,05,8.50
2007,09,23,07,06,8.50
2007,09,23,07,07,8.60
2007,09,23,07,08,8.60
2007,09,23,07,09,8.60
2007,09,23,07,10,8.60
2007,09,23,07,11,8.60
2007,09,23,07,12,8.60
2007,09,23,07,13,8.60
2007,09,23,07,14,8.60
2007,09,23,07,15,8.60
2007,09,23,07,16,8.60
2007,09,23,07,17,8.60
2007,09,23,07,18,8.60
2007,09,23,07,19,8.50
2007,09,23,07,20,8.40
2007,09,23,07,21,8.40
2007,09,23,07,22,8.30
2007,09,23,07,23,8.30
2007,09,23,07,24,8.30
2007,09,23,07,25,8.30
2007,09,23,07,26,8.30
2007,09,23,07,27,8.20
2007,09,23,07,28,8.20
2007,09,23,07,29,8.10
2007,09,23,07,30,8.10
2007,09,23,07,31,8.00
2007,09,23,07,32,8.10
2007,09,23,07,33,8.10
2007,09,23,07,34,8.10
2007,09,23,07,35,8.10
2007,09,23,07,36,8.20
2007,09,23,07,37,8.20
2007,09,23,07,38,8.30
2007,09,23,07,39,8.30
2007,09,23,07,40,8.40
2007,09,23,07,41,8.40
2007,09,23,07,42,8.40
2007,09,23,07,43,8.40
2007,09,23,07,44,8.40
2007,09,23,07,45,8.40
2007,09,23,07,46,8.50
2007,09,23,07,47,8.60
2007,09,23,07,48,8.60
2007,09,23,07,49,8.60
2007,09,23,07,50,8.60
2007,09,23,07,51,8.60
2007,09,23,07,52,8.70
2007,09,23,07,53,8.80
2007,09,23,07,54,8.80
2007,09,23,07,55,8.90
2007,09,23,07,56,8.90
2007,09,23,07,57,9.00
2007,09,23,07,58,9.00
2007,09,23,07,59,9.10
2007,09,23,08,00,9.20
2007,09,23,08,01,9.30
2007,09,23,08,02,9.30
2007,09,23,08,03,9.40
2007,09,23,08,04,9.50
2007,09,23,08,05,9.50
2007,09,23,08,06,9.60
2007,09,23,08,07,9.60
2007,09,23,08,08,9.60
2007,09,23,08,09,9.70
2007,09,23,08,10,9.70
2007,09,23,08,11,9.80
2007,09,23,08,12,9.80
2007,09,23,08,13,9.80
2007,09,23,08,14,9.80
2007,09,23,08,15,9.80
2007,09,23,08,16,9.90
2007,09,23,08,17,10.00
2007,09,23,08,18,10.10
2007,09,23,08,19,10.10
2007,09,23,08,20,10.20
2007,09,23,08,21,10.20
2007,09,23,08,22,10.30
2007,09,23,08,23,10.30
2007,09,23,08,24,10.40
2007,09,23,08,25,10.40
2007,09,23,08,26,10.50
2007,09,23,08,27,10.60
2007,09,23,08,28,10.60
2007,09,23,08,29,10.70
2007,09,23,08,30,10.70
2007,09,23,08,31,10.80
2007,09,23,08,32,10.80
2007,09,23,08,33,10.90
2007,09,23,08,34,10.90
2007,09,23,08,35,11.00
2007,09,23,08,36,11.00
2007,09,23,08,37,11.10
2007,09,23,08,38,11.10
2007,09,23,08,39,11.20
2007,09,23,08,40,11.20
2007,09,23,08,41,11.20
2007,09,23,08,42,11.30
2007,09,23,08,43,11.30
2007,09,23,08,44,11.30
2007,09,23,08,45,11.40
2007,09,23,08,46,11.40
2007,09,23,08,47,11.50
2007,09,23,08,48,11.50
2007,09,23,08,49,11.50
2007,09,23,08,50,11.60
2007,09,23,08,51,11.60
2007,09,23,08,52,11.60
2007,09,23,08,53,11.60
2007,09,23,08,54,11.70
2007,09,23,08,55,11.70
2007,09,23,08,56,11.70
2007,09,23,08,57,11.70
2007,09,23,08,58,11.70
2007,09,23,08,59,11.80
2007,09,23,09,00,11.80
2007,09,23,09,01,11.80
2007,09,23,09,02,11.80
2007,09,23,09,03,11.90
2007,09,23,09,04,11.90
2007,09,23,09,05,11.90
2007,09,23,09,06,12.00
2007,09,23,09,07,12.00
2007,09,23,09,08,12.00
2007,09,23,09,09,12.00
2007,09,23,09,10,12.00
2007,09,23,09,11,12.00
2007,09,23,09,12,12.10
2007,09,23,09,13,12.10
2007,09,23,09,14,12.10
2007,09,23,09,15,12.10
2007,09,23,09,16,12.20
2007,09,23,09,17,12.20
2007,09,23,09,18,12.20
2007,09,23,09,19,12.20
2007,09,23,09,20,12.30
2007,09,23,09,21,12.30
2007,09,23,09,22,12.30
2007,09,23,09,23,12.40
2007,09,23,09,24,12.40
2007,09,23,09,25,12.40
2007,09,23,09,26,12.40
2007,09,23,09,27,12.40
2007,09,23,09,28,12.40
2007,09,23,09,29,12.40
2007,09,23,09,30,12.40
2007,09,23,09,31,12.40
2007,09,23,09,32,12.40
2007,09,23,09,33,12.40
2007,09,23,09,34,12.40
2007,09,23,09,35,12.40
2007,09,23,09,36,12.40
2007,09,23,09,37,12.40
2007,09,23,09,38,12.50
2007,09,23,09,39,12.50
2007,09,23,09,40,12.50
2007,09,23,09,41,12.50
2007,09,23,09,42,12.60
2007,09,23,09,43,12.60
2007,09,23,09,44,12.60
2007,09,23,09,45,12.60
2007,09,23,09,46,12.70
2007,09,23,09,47,12.70
2007,09,23,09,48,12.70
2007,09,23,09,49,12.80
2007,09,23,09,50,12.80
2007,09,23,09,51,12.80
2007,09,23,09,52,12.80
2007,09,23,09,53,12.80
2007,09,23,09,54,12.80
2007,09,23,09,55,12.90
2007,09,23,09,56,12.90
2007,09,23,09,57,12.80
2007,09,23,09,58,12.80
2007,09,23,09,59,12.80
2007,09,23,10,00,12.80
2007,09,23,10,01,12.80
2007,09,23,10,02,12.80
2007,09,23,10,03,12.80
2007,09,23,10,04,12.80
2007,09,23,10,05,12.80
2007,09,23,10,06,12.90
2007,09,23,10,07,12.90
2007,09,23,10,08,12.90
2007,09,23,10,09,12.90
2007,09,23,10,10,12.90
2007,09,23,10,11,13.00
2007,09,23,10,12,13.00
2007,09,23,10,13,13.00
2007,09,23,10,14,13.00
2007,09,23,10,15,13.00
2007,09,23,10,16,13.00
2007,09,23,10,17,12.90
2007,09,23,10,18,12.90
2007,09,23,10,19,12.90
2007,09,23,10,20,12.90
2007,09,23,10,21,12.80
2007,09,23,10,22,12.80
2007,09,23,10,23,12.80
2007,09,23,10,24,12.80
2007,09,23,10,25,12.90
2007,09,23,10,26,12.90
2007,09,23,10,27,13.00
2007,09,23,10,28,13.10
2007,09,23,10,29,13.10
2007,09,23,10,30,13.20
2007,09,23,10,31,13.30
2007,09,23,10,32,13.30
2007,09,23,10,33,13.30
2007,09,23,10,34,13.30
2007,09,23,10,35,13.30
2007,09,23,10,36,13.30
2007,09,23,10,37,13.30
2007,09,23,10,38,13.30
2007,09,23,10,39,13.30
2007,09,23,10,40,13.30
2007,09,23,10,41,13.30
2007,09,23,10,42,13.30
2007,09,23,10,43,13.40
2007,09,23,10,44,13.40
2007,09,23,10,45,13.40
2007,09,23,10,46,13.40
2007,09,23,10,47,13.30
2007,09,23,10,48,13.30
2007,09,23,10,49,13.30
2007,09,23,10,50,13.30
2007,09,23,10,51,13.40
2007,09,23,10,52,13.40
2007,09,23,10,53,13.50
2007,09,23,10,54,13.60
2007,09,23,10,55,13.70
2007,09,23,10,56,13.60
2007,09,23,10,57,13.60
2007,09,23,10,58,13.50
2007,09,23,10,59,13.60
2007,09,23,11,00,13.60
2007,09,23,11,01,13.50
2007,09,23,11,02,13.50
2007,09,23,11,03,13.50
2007,09,23,11,04,13.50
2007,09,23,11,05,13.40
2007,09,23,11,06,13.40
2007,09,23,11,07,13.30
2007,09,23,11,08,13.30
2007,09,23,11,09,13.30
2007,09,23,11,10,13.30
2007,09,23,11,11,13.30
2007,09,23,11,12,13.30
2007,09,23,11,13,13.30
2007,09,23,11,14,13.30
2007,09,23,11,15,13.30
2007,09,23,11,16,13.40
2007,09,23,11,17,13.50
2007,09,23,11,18,13.50
2007,09,23,11,19,13.70
2007,09,23,11,20,13.70
2007,09,23,11,21,13.70
2007,09,23,11,22,13.70
2007,09,23,11,23,13.60
2007,09,23,11,24,13.50
2007,09,23,11,25,13.40
2007,09,23,11,26,13.30
2007,09,23,11,27,13.30
2007,09,23,11,28,13.30
2007,09,23,11,29,13.30
2007,09,23,11,30,13.30
2007,09,23,11,31,13.30
2007,09,23,11,32,13.30
2007,09,23,11,33,13.20
2007,09,23,11,34,13.20
2007,09,23,11,35,13.20
2007,09,23,11,36,13.10
2007,09,23,11,37,13.10
2007,09,23,11,38,13.10
2007,09,23,11,39,13.20
2007,09,23,11,40,13.30
2007,09,23,11,41,13.40
2007,09,23,11,42,13.40
2007,09,23,11,43,13.50
2007,09,23,11,44,13.60
2007,09,23,11,45,13.50
2007,09,23,11,46,13.50
2007,09,23,11,47,13.30
2007,09,23,11,48,13.30
2007,09,23,11,49,13.20
2007,09,23,11,50,13.10
2007,09,23,11,51,13.10
2007,09,23,11,52,13.10
2007,09,23,11,53,13.10
2007,09,23,11,54,13.10
2007,09,23,11,55,13.10
2007,09,23,11,56,13.10
2007,09,23,11,57,13.00
2007,09,23,11,58,12.90
2007,09,23,11,59,12.90
2007,09,23,12,00,13.00
2007,09,23,12,01,13.10
2007,09,23,12,02,13.20
2007,09,23,12,03,13.30
2007,09,23,12,04,13.30
2007,09,23,12,05,13.30
2007,09,23,12,06,13.30
2007,09,23,12,07,13.30
2007,09,23,12,08,13.40
2007,09,23,12,09,13.40
2007,09,23,12,10,13.30
2007,09,23,12,11,13.30
2007,09,23,12,12,13.30
2007,09,23,12,13,13.20
2007,09,23,12,14,13.20
2007,09,23,12,15,13.20
2007,09,23,12,16,13.20
2007,09,23,12,17,13.20
2007,09,23,12,18,13.20
2007,09,23,12,19,13.20
2007,09,23,12,20,13.20
2007,09,23,12,21,13.30
2007,09,23,12,22,13.20
2007,09,23,12,23,13.10
2007,09,23,12,24,13.10
2007,09,23,12,25,13.00
2007,09,23,12,26,13.00
2007,09,23,12,27,12.90
2007,09,23,12,28,12.90
2007,09,23,12,29,12.90
2007,09,23,12,30,12.90
2007,09,23,12,31,12.90
2007,09,23,12,32,12.90
2007,09,23,12,33,13.00
2007,09,23,12,34,13.10
2007,09,23,12,35,13.10
2007,09,23,12,36,13.10
2007,09,23,12,37,13.10
2007,09,23,12,38,13.10
2007,09,23,12,39,13.10
2007,09,23,12,40,13.10
2007,09,23,12,41,13.10
2007,09,23,12,42,13.10
2007,09,23,12,43,13.10
2007,09,23,12,44,13.10
2007,09,23,12,45,13.10
2007,09,23,12,46,13.20
2007,09,23,12,47,13.20
2007,09,23,12,48,13.20
2007,09,23,12,49,13.10
2007,09,23,12,50,13.00
2007,09,23,12,51,13.00
2007,09,23,12,52,12.90
2007,09,23,12,53,12.90
2007,09,23,12,54,13.00
2007,09,23,12,55,13.00
2007,09,23,12,56,13.10
2007,09,23,12,57,13.10
2007,09,23,12,58,13.00
2007,09,23,12,59,13.00
2007,09,23,13,00,13.10
2007,09,23,13,01,13.10
2007,09,23,13,02,13.10
2007,09,23,13,03,13.20
2007,09,23,13,04,13.20
2007,09,23,13,05,13.10
2007,09,23,13,06,13.10
2007,09,23,13,07,13.10
2007,09,23,13,08,13.20
2007,09,23,13,09,13.20
2007,09,23,13,10,13.10
2007,09,23,13,11,13.10
2007,09,23,13,12,13.10
2007,09,23,13,13,13.20
2007,09,23,13,14,13.20
2007,09,23,13,15,13.30
2007,09,23,13,16,13.30
2007,09,23,13,17,13.40
2007,09,23,13,18,13.40
2007,09,23,13,19,13.40
2007,09,23,13,20,13.40
2007,09,23,13,21,13.40
2007,09,23,13,22,13.30
2007,09,23,13,23,13.30
2007,09,23,13,24,13.30
2007,09,23,13,25,13.40
2007,09,23,13,26,13.40
2007,09,23,13,27,13.50
2007,09,23,13,28,13.60
2007,09,23,13,29,13.50
2007,09,23,13,30,13.50
2007,09,23,13,31,13.50
2007,09,23,13,32,13.40
2007,09,23,13,33,13.40
2007,09,23,13,34,13.50
2007,09,23,13,35,13.50
2007,09,23,13,36,13.60
2007,09,23,13,37,13.60
2007,09,23,13,38,13.60
2007,09,23,13,39,13.60
2007,09,23,13,40,13.60
2007,09,23,13,41,13.60
2007,09,23,13,42,13.60
2007,09,23,13,43,13.50
2007,09,23,13,44,13.50
2007,09,23,13,45,13.30
2007,09,23,13,46,13.30
2007,09,23,13,47,13.30
2007,09,23,13,48,13.30
2007,09,23,13,49,13.30
2007,09,23,13,50,13.30
2007,09,23,13,51,13.30
2007,09,23,13,52,13.30
2007,09,23,13,53,13.40
2007,09,23,13,54,13.40
2007,09,23,13,55,13.40
2007,09,23,13,56,13.40
2007,09,23,13,57,13.40
2007,09,23,13,58,13.40
2007,09,23,13,59,13.50
2007,09,23,14,00,13.50
2007,09,23,14,01,13.50
2007,09,23,14,02,13.50
2007,09,23,14,03,13.60
2007,09,23,14,04,13.60
2007,09,23,14,05,13.60
2007,09,23,14,06,13.60
2007,09,23,14,07,13.60
2007,09,23,14,08,13.70
2007,09,23,14,09,13.70
2007,09,23,14,10,13.80
2007,09,23,14,11,13.90
2007,09,23,14,12,13.90
2007,09,23,14,13,13.90
2007,09,23,14,14,14.00
2007,09,23,14,15,14.00
2007,09,23,14,16,13.90
2007,09,23,14,17,13.90
2007,09,23,14,18,13.90
2007,09,23,14,19,13.90
2007,09,23,14,20,13.90
2007,09,23,14,21,13.90
2007,09,23,14,22,13.90
2007,09,23,14,23,14.00
2007,09,23,14,24,14.00
2007,09,23,14,25,14.10
2007,09,23,14,26,14.20
2007,09,23,14,27,14.10
2007,09,23,14,28,14.10
2007,09,23,14,29,14.10
2007,09,23,14,30,14.10
2007,09,23,14,31,14.10
2007,09,23,14,32,14.10
2007,09,23,14,33,14.10
2007,09,23,14,34,14.20
2007,09,23,14,35,14.20
2007,09,23,14,36,14.20
2007,09,23,14,37,14.30
2007,09,23,14,38,14.30
2007,09,23,14,39,14.20
2007,09,23,14,40,14.20
2007,09,23,14,41,14.30
2007,09,23,14,42,14.30
2007,09,23,14,43,14.30
2007,09,23,14,44,14.30
2007,09,23,14,45,14.30
2007,09,23,14,46,14.30
2007,09,23,14,47,14.20
2007,09,23,14,48,14.20
2007,09,23,14,49,14.20
2007,09,23,14,50,14.10
2007,09,23,14,51,14.10
2007,09,23,14,52,14.10
2007,09,23,14,53,14.00
2007,09,23,14,54,14.00
2007,09,23,14,55,14.00
2007,09,23,14,56,14.00
2007,09,23,14,57,14.00
2007,09,23,14,58,14.10
2007,09,23,14,59,14.10
2007,09,23,15,00,14.10
2007,09,23,15,01,14.10
2007,09,23,15,02,14.10
2007,09,23,15,03,14.10
2007,09,23,15,04,14.10
2007,09,23,15,05,14.20
2007,09,23,15,06,14.20
2007,09,23,15,07,14.20
2007,09,23,15,08,14.20
2007,09,23,15,09,14.20
2007,09,23,15,10,14.20
2007,09,23,15,11,14.10
2007,09,23,15,12,14.10
2007,09,23,15,13,14.00
2007,09,23,15,14,13.90
2007,09,23,15,15,13.90
2007,09,23,15,16,13.90
2007,09,23,15,17,13.90
2007,09,23,15,18,13.90
2007,09,23,15,19,13.90
2007,09,23,15,20,13.90
2007,09,23,15,21,13.90
2007,09,23,15,22,13.90
2007,09,23,15,23,13.90
2007,09,23,15,24,13.90
2007,09,23,15,25,13.90
2007,09,23,15,26,13.90
2007,09,23,15,27,13.90
2007,09,23,15,28,14.00
2007,09,23,15,29,14.00
2007,09,23,15,30,14.00
2007,09,23,15,31,14.00
2007,09,23,15,32,14.00
2007,09,23,15,33,14.00
2007,09,23,15,34,14.10
2007,09,23,15,35,14.10
2007,09,23,15,36,14.10
2007,09,23,15,37,14.10
2007,09,23,15,38,14.10
2007,09,23,15,39,14.10
2007,09,23,15,40,14.10
2007,09,23,15,41,14.10
2007,09,23,15,42,14.10
2007,09,23,15,43,14.10
2007,09,23,15,44,14.10
2007,09,23,15,45,14.10
2007,09,23,15,46,14.00
2007,09,23,15,47,14.00
2007,09,23,15,48,14.10
2007,09,23,15,49,14.10
2007,09,23,15,50,14.10
2007,09,23,15,51,14.10
2007,09,23,15,52,14.10
2007,09,23,15,53,14.20
2007,09,23,15,54,14.30
2007,09,23,15,55,14.30
2007,09,23,15,56,14.30
2007,09,23,15,57,14.30
2007,09,23,15,58,14.30
2007,09,23,15,59,14.30
2007,09,23,16,00,14.30
2007,09,23,16,01,14.30
2007,09,23,16,02,14.20
2007,09,23,16,03,14.20
2007,09,23,16,04,14.10
2007,09,23,16,05,14.10
2007,09,23,16,06,14.10
2007,09,23,16,07,14.10
2007,09,23,16,08,14.20
2007,09,23,16,09,14.20
2007,09,23,16,10,14.20
2007,09,23,16,11,14.20
2007,09,23,16,12,14.20
2007,09,23,16,13,14.20
2007,09,23,16,14,14.20
2007,09,23,16,15,14.30
2007,09,23,16,16,14.30
2007,09,23,16,17,14.40
2007,09,23,16,18,14.40
2007,09,23,16,19,14.40
2007,09,23,16,20,14.40
2007,09,23,16,21,14.50
2007,09,23,16,22,14.50
2007,09,23,16,23,14.50
2007,09,23,16,24,14.50
2007,09,23,16,25,14.50
2007,09,23,16,26,14.50
2007,09,23,16,27,14.50
2007,09,23,16,28,14.60
2007,09,23,16,29,14.60
2007,09,23,16,30,14.60
2007,09,23,16,31,14.60
2007,09,23,16,32,14.60
2007,09,23,16,33,14.60
2007,09,23,16,34,14.60
2007,09,23,16,35,14.60
2007,09,23,16,36,14.60
2007,09,23,16,37,14.60
2007,09,23,16,38,14.60
2007,09,23,16,39,14.60
2007,09,23,16,40,14.60
2007,09,23,16,41,14.60
2007,09,23,16,42,14.60
2007,09,23,16,43,14.60
2007,09,23,16,44,14.60
2007,09,23,16,45,14.60
2007,09,23,16,46,14.60
2007,09,23,16,47,14.60
2007,09,23,16,48,14.60
2007,09,23,16,49,14.60
2007,09,23,16,50,14.60
2007,09,23,16,51,14.70
2007,09,23,16,52,14.70
2007,09,23,16,53,14.70
2007,09,23,16,54,14.70
2007,09,23,16,55,14.70
2007,09,23,16,56,14.60
2007,09,23,16,57,14.60
2007,09,23,16,58,14.70
2007,09,23,16,59,14.70
2007,09,23,17,00,14.70
2007,09,23,17,01,14.70
2007,09,23,17,02,14.70
2007,09,23,17,03,14.70
2007,09,23,17,04,14.70
2007,09,23,17,05,14.80
2007,09,23,17,06,14.80
2007,09,23,17,07,14.80
2007,09,23,17,08,14.80
2007,09,23,17,09,14.80
2007,09,23,17,10,14.80
2007,09,23,17,11,14.80
2007,09,23,17,12,14.80
2007,09,23,17,13,14.80
2007,09,23,17,14,14.80
2007,09,23,17,15,14.80
2007,09,23,17,16,14.80
2007,09,23,17,17,14.80
2007,09,23,17,18,14.80
2007,09,23,17,19,14.80
2007,09,23,17,20,14.70
2007,09,23,17,21,14.70
2007,09,23,17,22,14.70
2007,09,23,17,23,14.70
2007,09,23,17,24,14.70
2007,09,23,17,25,14.70
2007,09,23,17,26,14.70
2007,09,23,17,27,14.70
2007,09,23,17,28,14.70
2007,09,23,17,29,14.70
2007,09,23,17,30,14.70
2007,09,23,17,31,14.80
2007,09,23,17,32,14.80
2007,09,23,17,33,14.80
2007,09,23,17,34,14.80
2007,09,23,17,35,14.90
2007,09,23,17,36,14.90
2007,09,23,17,37,14.90
2007,09,23,17,38,15.00
2007,09,23,17,39,15.00
2007,09,23,17,40,15.00
2007,09,23,17,41,15.00